Location: Heilwood
(40.6210°N, 78.9150°W)
Time: 22:54:50
(UTC-04:00)

Daily predictions for brighter satellites

Satellite Brightness Start Highest point End
(mag) Time Altitude Azimuth Time Altitude Azimuth Time Altitude Azimuth
Cosmos 1536 Rocket 3.7 20:59:55 10° S 21:04:14 83° W 21:08:35 10° N
OAO 2 Rocket 3.8 21:00:10 10° WSW 21:04:50 44° S 21:09:33 10° ESE
NOSS 2-2 (C) 4.4 21:01:05 10° SW 21:04:59 54° NW 21:09:30 10° NNE
Aureole 3 Rocket 3.7 20:59:01 10° S 21:05:04 56° E 21:09:24 10° NNE
ISS -3.5 21:03:25 10° WSW 21:06:42 74° NW 21:10:01 10° NE
Aureole 1 Rocket 2.3 21:04:43 10° S 21:07:55 52° ESE 21:10:50 10° NNE
Cosmos 1441 Rocket 3.6 21:07:30 10° SSE 21:11:01 41° E 21:14:33 10° NNE
Meteor 1-19 Rocket 4.3 21:07:13 10° S 21:13:01 78° E 21:18:45 10° NNE
CZ-4B DEB 4.5 21:09:51 10° SSE 21:13:22 78° ENE 21:16:55 10° N
ASTEX 1 4.1 21:09:23 10° SE 21:13:52 37° ENE 21:18:21 10° N
Cosmos 1025 Rocket 3.6 21:13:42 10° SSE 21:17:36 36° E 21:21:31 10° NNE
Cosmos 2112 Rocket 4.0 21:13:20 10° SSW 21:18:34 81° ESE 21:23:46 10° NNE
USA 186 2.9 21:15:55 10° S 21:18:57 41° W 21:21:55 10° NNW
Okean 2 4.2 21:20:04 10° SSE 21:23:40 31° E 21:27:18 10° NNE
Cosmos 2082 Rocket 3.4 21:26:26 10° SSE 21:30:33 21° E 21:34:39 10° NE
Cosmos 2074 Rocket 4.1 21:24:18 10° N 21:30:36 86° W 21:36:52 10° S
COSMOS 2406 3.9 21:25:11 10° SW 21:30:50 60° WNW 21:36:29 10° NNE
SL-27 R/B 2.8 21:28:06 10° SSW 21:31:45 71° WNW 21:35:24 10° NNE
H-2A R/B 3.7 21:28:55 10° ESE 21:32:07 17° ENE 21:35:22 10° NNE
Cosmos 2184 Rocket 4.1 21:28:41 10° N 21:35:04 83° W 21:41:19 10° S
Cosmos 1743 3.9 21:32:49 10° NNW 21:36:33 44° W 21:40:16 10° SSW
PSLV R/B 3.3 21:33:31 10° W 21:36:35 52° SSW 21:38:47 17° SE
Meteor 1-15 Rocket 4.4 21:32:03 10° N 21:37:32 55° ENE 21:42:38 12° SSE
SAR-Lupe-4 4.0 21:37:04 10° S 21:40:36 61° WSW 21:44:11 10° NNW
Cosmos 1680 Rocket 4.3 21:35:43 10° SW 21:40:50 54° WNW 21:45:58 10° N
Cosmos 2056 Rocket 3.7 21:40:14 10° N 21:45:19 56° ENE 21:49:17 16° SE
YAOGAN 6 2.5 21:43:14 11° SSE 21:46:31 89° WSW 21:50:03 10° NNW
Envisat 3.8 21:42:46 10° S 21:47:40 50° W 21:52:37 10° NNW
Cosmos 1697 Rocket 4.2 21:45:13 10° N 21:49:41 24° NE 21:53:32 12° ESE
Resurs 01 Rocket 4.3 21:48:22 10° SW 21:51:17 17° W 21:54:12 10° NW
Cosmos 2369 4.2 21:46:29 10° NNW 21:52:01 46° ENE 21:56:03 18° SE
Cosmos 1666 4.0 21:53:03 10° NNW 21:56:32 37° W 21:59:59 10° SSW
H-2A R/B 4.3 21:54:53 10° E 21:57:03 13° ENE 21:59:13 10° NNE
NOSS 8 (F) 4.4 21:55:25 10° SSW 21:58:55 61° ESE 22:02:25 10° NE
Tiangong 2 1.6 21:58:05 10° W 22:01:13 58° N 22:04:08 12° ENE
Nadezhda 1 Rocket 4.4 21:55:12 10° SSW 22:01:30 67° W 22:07:55 10° N
Meteor 2-19 Rocket 4.5 21:58:19 10° N 22:04:27 70° E 22:09:15 17° SSE
Cosmos 1833 Rocket 3.2 22:01:02 13° SSE 22:05:30 38° ESE 22:10:40 10° NE
MetOp-A 4.1 22:02:23 17° SSE 22:06:33 77° ENE 22:11:55 10° N
Cosmos 405 4.1 22:04:32 10° NNW 22:07:53 41° W 22:11:00 11° SSW
COSMOS 2487 2.4 22:10:54 20° S 22:13:10 61° ESE 22:16:43 10° NNE
Terra 3.4 22:12:17 17° E 22:14:17 22° ENE 22:17:52 10° NNE
Cosmos 1437 Rocket 2.9 22:10:54 10° NNW 22:14:43 68° W 22:17:17 20° S
SL-8 Rocket 4.3 22:09:13 10° N 22:15:18 50° ENE 22:18:59 23° SE
Cosmos 1452 Rocket 4.1 22:12:07 10° N 22:17:11 45° ENE 22:19:50 25° ESE
Cosmos 2154 Rocket 4.3 22:13:00 10° NNW 22:19:19 70° W 22:25:08 12° S
TELKOM 3 4.1 22:17:31 10° NW 22:19:50 45° NNE 22:20:45 32° E
Cosmos 2228 3.2 22:16:38 10° N 22:20:51 55° E 22:22:37 32° SE
SPOT 5 2.5 22:18:47 27° SSE 22:21:04 74° ENE 22:25:26 10° N
NOSS 8 (H) 4.2 22:18:32 10° SSW 22:21:54 71° ESE 22:25:25 10° NE
Cosmos 921 Rocket 3.0 22:18:04 10° NNW 22:22:34 88° ENE 22:24:47 29° SSE
SPOT 1/Viking Rocket 3.7 22:20:35 26° SE 22:23:21 57° ENE 22:28:25 10° N
Cosmos 1066 Rocket 4.4 22:20:34 23° SSE 22:23:47 52° E 22:29:14 10° NNE
ERS-1 Rocket 3.6 22:21:27 14° S 22:25:34 52° W 22:30:29 10° NNW
Cosmos 1515 4.0 22:25:11 17° SSW 22:28:02 65° W 22:31:50 10° N
Cosmos 1892 Rocket 4.0 22:32:14 14° SSW 22:36:00 61° W 22:40:21 10° N
SL-24 DEB 4.2 22:34:54 27° S 22:37:26 80° W 22:42:06 10° N
Cosmos 1980 Rocket 3.2 22:33:29 10° N 22:38:36 34° ENE 22:41:05 24° ESE
Cosmos 1602 Rocket 3.8 22:40:41 41° SE 22:41:32 47° E 22:45:43 10° NNE
ARGOS 3.4 22:39:41 24° S 22:42:57 67° WSW 22:48:22 10° NNW
ISS -0.7 22:41:21 10° WNW 22:43:39 17° NNW 22:45:58 10° NNE
SL-08 RB Rocket 3.8 22:44:22 33° S 22:46:17 71° WSW 22:50:45 10° NNW
OAO 2 Rocket 4.2 22:44:50 10° WSW 22:49:08 30° SSW 22:49:22 30° SSW
Cosmos 2322 Rocket 4.2 22:45:42 10° N 22:49:20 17° NE 22:52:24 12° E
Cosmos 1766 3.9 22:47:14 10° N 22:50:55 38° ENE 22:51:05 38° E
USA 229 DEB 4.3 22:44:44 10° NNW 22:51:38 49° NE 22:55:40 25° ESE
USA 229 4.4 22:44:50 10° NNW 22:51:45 49° NE 22:55:46 25° ESE
deb Chang Zheng 4 4.1 22:50:20 10° NNE 22:54:23 39° E 22:54:23 39° E
CZ-3A R/B 2.6 22:53:56 10° W 22:55:52 19° NW 22:55:52 19° NW
Timation 2 Rocket 3.9 22:52:15 24° S 22:56:08 65° ESE 23:02:14 10° NNE
SL-08 R/B 4.4 22:52:08 10° N 22:58:17 79° E 23:00:52 37° SSE
Cosmos 1809 Rocket 4.3 22:54:03 10° N 23:00:09 87° E 23:02:47 37° S
Lacrosse 5 rocket 4.1 22:57:30 10° NNW 23:00:28 16° NNE 23:03:25 10° ENE
Cosmos 2218 Rocket 3.9 22:57:26 10° N 23:03:37 83° W 23:06:29 34° S
Cosmos 158 Rocket 4.1 23:02:36 45° SSE 23:03:55 59° ESE 23:09:12 10° NNE
CARTOSAT-1 3.5 23:07:08 61° SE 23:07:46 72° ENE 23:12:04 10° N
H-2A R/B 2.4 23:09:14 36° SSW 23:11:02 56° W 23:16:01 10° NNW
Cosmos 2082 Rocket 2.9 23:08:38 10° SW 23:14:11 54° WNW 23:19:44 10° NNE
CZ-4B R/B 3.8 23:10:40 10° NNE 23:15:37 48° E 23:16:02 46° ESE
Meteor 2-16 Rocket 4.4 23:12:30 10° N 23:18:40 78° E 23:20:37 46° SSE
CZ-4 R/B 3.9 23:14:37 10° NNE 23:19:38 62° ESE 23:20:15 57° SE
Cosmos 1805 3.9 23:17:25 10° N 23:20:47 44° ENE 23:20:47 44° ENE
Cosmos 1758 4.3 23:17:55 10° N 23:21:12 35° ENE 23:21:12 35° ENE
Meteor 1-4 Rocket 3.6 23:20:07 10° NNW 23:23:25 35° W 23:23:30 35° W
Meteor 1-22 Rocket 4.3 23:20:09 10° NNW 23:25:25 66° W 23:26:59 45° SSW
IGS 5A 3.4 23:25:24 73° SW 23:25:37 76° W 23:29:47 10° NNW
Nadezhda 3 Rocket 4.0 23:27:58 48° SSE 23:29:45 69° E 23:36:05 10° NNE
H-2A R/B 2.3 23:32:00 60° SW 23:32:30 65° WSW 23:37:01 10° NNW
Cosmos 1697 Rocket 3.1 23:28:31 10° NNW 23:33:57 52° WSW 23:35:16 42° SSW
ATLAS CENTAUR R/B 3.1 23:31:38 10° N 23:34:25 20° NE 23:34:34 20° NE
SL-19 R/B 4.1 23:29:49 10° NNE 23:35:08 76° WNW 23:36:44 46° SSW
Cosmos 1812 Rocket 3.8 23:31:11 10° NNW 23:35:37 62° W 23:36:00 59° WSW
Cosmos 1269 Rocket 4.2 23:36:00 38° SW 23:37:57 67° WNW 23:43:14 10° NNE
Tiangong 2 3.2 23:34:58 10° WNW 23:36:21 23° WNW 23:36:21 23° WNW
Cosmos 2360 4.1 23:33:07 10° NNW 23:38:52 85° ENE 23:39:55 61° SSE
SL-16 R/B 3.0 23:36:55 10° N 23:42:14 39° ENE 23:43:34 34° E
Iridium 2 4.2 23:38:57 10° N 23:42:13 58° NW 23:42:13 58° NW
Cosmos 1821 Rocket 4.2 23:39:05 10° N 23:45:19 60° E 23:46:36 50° SE
CZ-4C R/B 4.0 23:48:47 45° N 23:48:47 45° N 23:51:27 10° N
Cosmos 1842 3.9 23:48:56 51° WNW 23:48:56 51° WNW 23:52:35 10° N
Cosmos 389 Rocket 3.8 23:46:00 10° N 23:48:14 36° N 23:48:14 36° N
Cosmos 1833 Rocket 4.3 23:44:32 10° WSW 23:49:28 31° WNW 23:54:25 10° N
Cosmos 972 Rocket 4.2 23:46:28 10° N 23:51:31 51° ENE 23:51:48 50° E
Terra 2.6 23:51:10 38° WSW 23:51:45 40° W 23:56:14 10° NNW
Cosmos 1331 Rocket 4.2 23:46:52 10° N 23:51:56 53° ENE 23:52:20 52° E
Cosmos 1271 Rocket 3.6 23:49:17 10° NNW 23:52:36 45° WNW 23:52:36 45° WNW
